Regional Weather Roundup
Issued by NWS Kansas City/Pleasant Hill, MO

Home | Current Version | Previous Version | Graphics & Text | Print | Product List | Glossary Off
Versions: 1 2 3 4 5 6 7 8 9 10 11 12 13 14 15 16 17 18 19 20 21 22 23 24 25 26 27 28 29 30 31 32 33 34 35 36 37 38 39 40 41 42 43 44 45 46 47 48 49 50

000
ASUS43 KEAX 241410
RWREAX

WEATHER ROUNDUP FOR EASTERN KANSAS AND NORTHWEST MISSOURI
NATIONAL WEATHER SERVICE KANSAS CITY/PLEASANT HILL MO
900 AM CDT MON APR 24 2017

KSZ040-057-103>105-MOZ028-029-037-043-241500-
...KANSAS CITY METROPOLITAN AREA...

CITY           SKY/WX    TMP DP  RH WIND       PRES   REMARKS
K.C. INTL      PTSUNNY   60  40  47 S17G26    29.87F
K.C. DOWNTOWN  SUNNY     62  38  40 S10G20    29.89F
LEES SUMMIT    SUNNY     58  39  49 S13       29.92F
OLATHE - IXD   SUNNY     59  41  51 S15       29.89F
OLATHE - OJC   SUNNY     58  42  55 S13G23    29.89F
LAWRENCE       SUNNY     61  40  45 SE20G25   29.86F

$$

MOZ001>008-011>017-020>025-030>033-038>040-044>046-053-054-241500-
...NORTHERN AND CENTRAL MISSOURI...

CITY           SKY/WX    TMP DP  RH WIND       PRES   REMARKS
ST. JOSEPH     CLOUDY    59  40  49 S17G25    29.85F
MOSBY          SUNNY     54  41  62 SE3       29.91F
WHITEMAN AFB   MOSUNNY   57  44  62 S7        29.93F
CLINTON        SUNNY     55  43  62 S8        29.95F
SEDALIA        SUNNY     58  43  57 S9        29.97
WARSAW         NOT AVBL
CHILLICOTHE      N/A     57  41  55 SE3       29.93F
KIRKSVILLE     CLOUDY    60  36  40 S10       29.96S

$$

MOZ041-047>049-056>058-063>065-088>090-097-241500-
...EASTERN AND SOUTHERN MISSOURI...

CITY           SKY/WX    TMP DP  RH WIND       PRES   REMARKS
ST. LOUIS INTL PTSUNNY   60  38  43 E6        29.97F
SPIRIT OF STL  CLOUDY    52  44  74 CALM      29.97S
COLUMBIA       CLOUDY    56  38  50 S7        29.98R
JEFFERSON CITY CLOUDY    50  43  77 CALM      29.98S
ROLLA          CLOUDY    55  41  59 SW5       29.97R
OSAGE BEACH    SUNNY     50  39  66 CALM      30.00
SPRINGFIELD    SUNNY     56  41  57 S8        29.97F
BRANSON        MOSUNNY   57  39  51 CALM      30.00S
JOPLIN         SUNNY     58  44  60 S10       29.96S
WEST PLAINS    SUNNY     59  37  44 CALM      29.99S

$$

IAZ060-094-KSZ022-034>040-054-083-096-NEZ052-066-093-241500-
...KANSAS...SOUTHEAST NEBRASKA AND IOWA...

CITY           SKY/WX    TMP DP  RH WIND       PRES   REMARKS
TOPEKA         SUNNY     59  41  51 SE15G24   29.83F
MANHATTAN      SUNNY     60  39  45 S22G38    29.78F
EMPORIA        SUNNY     54  44  69 S15       29.84F
CHANUTE        SUNNY     58  45  62 SE15      29.90F
WICHITA        MOSUNNY   57  41  55 S23G30    29.81F
OMAHA          PTSUNNY   58  36  43 S22G32    29.75F
LINCOLN        CLOUDY    57  37  47 S22G33    29.71F
FALLS CITY     SUNNY     58  38  47 S24G35    29.80F
LAMONI         CLOUDY    56  37  49 S13       29.88F
DES MOINES     CLOUDY    59  37  44 S15       29.87S

$$




USA.gov is the U.S. government's official web portal to all federal, state and local government web resources and services.